User: anonymous   Login
Location: Unspecified
(0.0000°N, 0.0000°E)
Time: 10:16:40
(UTC+00:00)
Language:

Gurwin Techsat 1B - Orbit

View from above orbital plane
View from above orbital plane
View from above satellite
View from above satellite

Ground track
Ground track

The orbit data is extracted from the following two-line orbital elements,

1 25397U 98043D   21168.68700922 -.00000004  00000-0  17666-4 0  9997
2 25397  98.7712 114.2381 0002410  84.7705 275.3748 14.23709980191527
Epoch (UTC): 17 June 2021 16:29:17
Eccentricity: 0.0002410
inclination: 98.7712°
perigee height: 811 km
apogee height: 814 km
right ascension of ascending node: 114.2381°
argument of perigee: 84.7705°
revolutions per day: 14.23709980
mean anomaly at epoch: 275.3748°
orbit number at epoch: 19152

The dashed part of the orbit path shows where the satellite is in the earth's shadow,  

DLR